Location: Harburg
(48.7667°N, 10.6667°E)
Time: 19:52:04
(UTC+00:00)

Cosmos 1833 Rocket - Visible Passes

Search period start: 26 January 2021 00:00
Search period end: 05 February 2021 00:00
Orbit: 834 x 838 km, 71.0° (Epoch: 25 January)

Date Brightness Start Highest point End Pass type
(mag) Time Alt. Az. Time Alt. Az. Time Alt. Az.
26 Jan 2.6 17:53:05 10° NNW 17:58:45 82° ENE 18:04:22 10° SSE visible
26 Jan 5.2 19:38:22 10° WNW 19:41:57 18° W 19:45:31 10° SW visible
27 Jan 2.6 17:36:21 10° NNW 17:42:00 77° ENE 17:47:37 10° SSE visible
27 Jan 5.1 19:21:27 10° WNW 19:25:16 19° W 19:29:05 10° SW visible
28 Jan 2.6 17:19:36 10° NNW 17:25:15 72° ENE 17:30:51 10° SE visible
28 Jan 5.1 19:04:33 10° NW 19:08:35 21° W 19:12:36 10° SSW visible
29 Jan 2.7 17:02:52 10° NNW 17:08:30 67° ENE 17:14:05 10° SE visible
29 Jan 5.0 18:47:41 10° NW 18:51:54 22° W 18:56:07 10° SSW visible
30 Jan 2.7 16:46:08 10° NNW 16:51:44 63° ENE 16:57:18 10° SE visible
30 Jan 5.0 18:30:49 10° NW 18:35:13 24° WSW 18:39:35 10° SSW visible
31 Jan 4.9 18:13:58 10° NW 18:18:31 26° WSW 18:23:04 10° SSW visible
01 Feb 4.8 17:57:08 10° NW 18:01:50 28° WSW 18:06:30 10° SSW visible
02 Feb 4.8 17:40:18 10° NW 17:45:08 30° WSW 17:49:56 10° SSW visible
03 Feb 4.7 17:23:29 10° NW 17:28:25 32° WSW 17:33:20 10° SSW visible
04 Feb 4.6 17:06:40 10° NW 17:11:43 35° WSW 17:16:44 10° S visible
